www.pogodaiklimat.ru

Погода и климат >> Архив погоды >> Австралия >> Квинсленд >> Лихау риф


ПОГОДА на Лихау рифе

  • Прогноз погоды на Лихау рифе
  • Монитор погоды на Лихау рифе

АРХИВ ПОГОДЫ на Лихау рифе

Время (UTC), дата Ветер
(напр.,м/с)
 
Видим.   Явления Облачность Т
(С)
Тd
(С)
f
(%)
Тe
(С)
Тes
(С)
Комфортность P
(гПа)
Po
(гПа)
Тmin
(С)
Tmax
(С)
R
(мм)
R24
(мм)
S
(см)
17 11.09 0 н/о 1022.6 1021.7
20 11.09 0 н/о 1022.9 1022.0
23 11.09 0 н/о 1024.7 1023.8
02 12.09 0 н/о 1023.5 1022.6
05 12.09 В 7 н/о н/о +23.1 +14.4 58 +27 +27 душно 1020.9 1020.0
08 12.09 В 8 н/о н/о +21.7 +17.1 75 +26 +26 душно 1021.7 1020.8
11 12.09 В 7 н/о н/о +21.4 +17.0 76 +25 +25 комфорт 1022.7 1021.8
14 12.09 В 6 н/о н/о +21.0 +16.0 73 +24 +24 комфорт 1022.0 1021.1
17 12.09 ЮВ 5 н/о н/о +20.2 +16.0 77 +23 +23 комфорт 1021.2 1020.3
20 12.09 Ю 2 н/о н/о +14.1 +13.1 94 +13 +13 1022.0 1021.1
23 12.09 ЮВ 4 н/о н/о +22.3 +16.6 70 +27 +27 душно 1023.4 1022.5
02 13.09 В 5 н/о н/о +22.9 +15.5 63 +27 +27 душно 1022.3 1021.4
05 13.09 В 7 н/о н/о +24.5 +11.5 44 +26 +26 жарко 1019.7 1018.8
08 13.09 В 6 н/о н/о +22.5 +12.2 52 +25 +25 комфорт 1020.0 1019.1
11 13.09 В 5 н/о н/о +22.2 +13.5 58 +25 +25 комфорт 1021.3 1020.4
14 13.09 В 4 н/о н/о +21.9 +14.5 63 +25 +25 комфорт 1021.5 1020.6 +24.8
17 13.09 ЮЗ 2 н/о н/о +14.2 +11.2 82 +14 +14 1020.2 1019.3
20 13.09 ЮЗ 3 н/о н/о +14.2 +11.2 82 +13 +13 1020.9 1020.0
23 13.09 ЮВ 3 н/о н/о +23.4 +14.9 59 +27 +27 душно 1022.5 1021.6
02 14.09 В 4 н/о н/о +24.1 +16.6 63 +28 +28 душно 1021.4 1020.5 +13.8
05 14.09 В 5 н/о н/о +23.8 +17.1 66 +28 +28 душно 1019.2 1018.3
08 14.09 СВ 4 н/о н/о +22.0 +17.4 75 +26 +26 душно 1019.8 1018.9
11 14.09 В 4 н/о н/о +21.8 +17.4 76 +26 +26 душно 1021.1 1020.2
14 14.09 В 4 н/о н/о +21.2 +17.2 78 +25 +25 комфорт 1020.8 1019.9 +25.2
17 14.09 В 4 н/о н/о +20.8 +16.4 76 +24 +24 комфорт 1019.6 1018.7
20 14.09 Ю 3 н/о н/о +15.4 +14.6 95 +15 +15 1020.8 1019.9
23 14.09 ЮВ 3 н/о н/о +23.2 +16.5 66 +28 +28 душно 1022.6 1021.7
02 15.09 В 5 н/о н/о +23.8 +17.5 68 +28 +28 душно 1021.8 1020.9 +15.2
05 15.09 В 5 н/о н/о +24.0 +18.2 70 +28 +28 душно 1020.2 1019.3
08 15.09 В 5 н/о н/о +22.3 +16.6 70 +27 +27 душно 1020.9 1020.0
11 15.09 В 5 н/о н/о +22.2 +16.0 68 +26 +26 душно 1021.8 1020.9
14 15.09 В 6 н/о н/о +22.1 +15.5 66 +26 +26 душно 1021.9 1021.0 +24.9
17 15.09 В 4 н/о н/о +21.4 +17.0 76 +25 +25 комфорт 1020.5 1019.6
20 15.09 ЮВ 4 н/о н/о +20.5 +17.5 83 +24 +24 комфорт 1020.7 1019.8
23 15.09 ЮВ 5 н/о н/о +23.3 +17.1 68 +28 +28 душно 1022.3 1021.4
02 16.09 В 5 н/о н/о +25.2 +17.9 64 +30 +30 душно 1021.2 1020.3 +17.9
05 16.09 В 6 н/о н/о +23.8 +15.8 61 +27 +27 жарко 1019.0 1018.1
08 16.09 В 7 н/о н/о +22.3 +16.3 69 +27 +27 душно 1019.0 1018.1
11 16.09 В 6 н/о н/о +22.0 +16.5 71 +26 +26 душно 1020.3 1019.4
14 16.09 В 5 н/о н/о +21.7 +15.3 67 +25 +25 комфорт 1019.8 1018.9 +25.9
17 16.09 СВ 4 н/о н/о +20.8 +14.7 68 +24 +24 комфорт 1018.3 1017.4
20 16.09 ЮЗ 3 н/о н/о +15.1 +13.6 91 +15 +15 1019.3 1018.4
23 16.09 В 3 н/о н/о +24.0 +17.5 67 +28 +28 душно 1020.5 1019.6
02 17.09 В 4 н/о н/о +24.1 +15.6 59 +27 +27 жарко 1019.4 1018.5 +14.8
05 17.09 СВ 5 н/о н/о +23.6 +16.4 64 +27 +27 жарко 1017.2 1016.3
08 17.09 СВ 5 н/о н/о +22.1 +16.4 70 +26 +26 душно 1017.6 1016.7
11 17.09 СВ 5 н/о н/о +21.9 +16.4 71 +26 +26 душно 1019.3 1018.4
14 17.09 С 3 н/о н/о +20.7 +15.7 73 +24 +24 комфорт 1019.4 1018.5 +25.2
17 17.09 С 3 н/о н/о +20.2 +15.8 76 +23 +23 комфорт 1018.2 1017.3
20 17.09 СЗ 2 н/о {туман} н/о +18.7 +15.0 79 +20 +20 1018.6 1017.7
23 17.09 С 4 н/о {туман} н/о +23.7 +16.5 64 +27 +27 жарко 1020.1 1019.2
02 18.09 С 5 н/о н/о +24.8 +17.3 63 +29 +29 душно 1018.8 1017.9 +18.8
05 18.09 СВ 7 н/о н/о +23.9 +17.4 67 +28 +28 душно 1016.4 1015.5
08 18.09 СВ 9 н/о н/о +22.7 +18.3 76 +28 +28 душно 1016.9 1016.0
11 18.09 С 4 н/о н/о +21.9 +18.5 81 +27 +27 душно 1019.0 1018.1
14 18.09 СВ 5 н/о н/о +22.0 +18.6 81 +27 +27 душно 1018.4 1017.5 +25.6

 

Местоположение метеостанции Лихау риф (Квинсленд, Австралия): широта -19.45 долгота 147.48 высота над уровнем моря 8 м.

В архиве по умолчанию представлена погода на Лихау рифе за последнюю неделю. Архивные данные за месяц целиком и за предыдущие месяцы, начиная с января 2011 года, Вы можете получить, выбрав интересующий диапазон дат из раскрывающегося списка и нажав кнопку "Ввод!".


*Определитесь, кто Вы:
робот инопланетянин человек

Внимание! Время в таблицах - всемирное. Для получения местного времени необходимо прибавить поправку, которая равна 10 ч.

Смотрите также архив погоды в соседних городах и на ближайших метеорологических станциях:

Погода в Эре (Квинсленд, Австралия) (22 км)
Погода в Таунсвилле (Квинсленд, Австралия) (79 км)
Погода в Вулшеде (Квинсленд, Австралия) (100 км)
Погода в Лусинде (Квинсленд, Австралия) (154 км)
Погода в Прозерпине (Квинсленд, Австралия) (160 км)
Погода в Гамильтон Айленд (Квинсленд, Австралия) (183 км)
Погода на Флиндер Рифе (Квинсленд, Австралия) (219 км)
Погода в Маккае (Квинсленд, Австралия) (258 км)
Погода в Юг Джонстон (Квинсленд, Австралия) (258 км)
Погода в Маккае (Квинсленд, Австралия) (261 км)

Пояснения к столбцам:

Ветер - указаны скорость ветра в м/с - средняя за 10 мин, порывы в срок и между сроками (в фигурных скобках) и направление, откуда дует ветер: С - северный, СВ - северо-восточный, В - восточный, ЮВ - юго-восточный, Ю - южный, ЮЗ - юго-западный, З - западный, СЗ - северо-западный.
Видимость - горизонтальная дальность видимости в метрах или километрах. При видимости от 1 до 10 км при отсутствии осадков обычно наблюдается дымка, при ухудшении видимости до 1 км и менее - туман. В сухую погоду видимость может ухудшаться дымом, пылью или мглою.
Явления - указаны атмосферные явления, наблюдавшиеся в срок или в последний час перед сроком; фигурными скобками обозначены явления, наблюдавшиеся между сроками (за 1-3 часа до срока); квадратными скобками обозначены град или гололедные отложения с указанием их диаметра в мм.
Облачность - указаны через наклонную черту общая и нижняя облачность в баллах и высота нижней границы облаков в метрах; квадратными скобками обозначены формы облаков: Ci - перистые, Cs - перисто-слоистые, Cc - перисто-кучевые, Ac - высококучевые, As - высокослоистые, Sc - слоисто-кучевые, Ns - слоисто-дождевые, Cu - кучевые, Cb - кучево-дождевые. Подробнее классификацию облаков см. в Атласе облаков (PDF).
T - Температура воздуха - температура, измеренная на высоте 2 м над землей.
Td - Температура точки росы - температура, при понижении до которой содержащийся в воздухе водяной пар достигнет насыщения.
f - Относительная влажность воздуха - влажноcть воздуха, измеренная на высоте 2 м над землей.
Te - Эффективная температура - температура, которую ощущает одетый по сезону человек в тени. Характеристика душности погоды. При расчете учитывается влияние влажности воздуха и скорости ветра на теплоощущения человека.
Tes - Эффективная температура на солнце - температура, которую ощущает человек, с поправкой на солнечный нагрев. Характеристика знойности погоды. Зависит от высоты солнца над горизонтом, облачности и скорости ветра. Ночью, в пасмурную погоду, а также при ветре 12 м/с и более поправка равна нулю.
P - Атмосферное давление - приведенное к уровню моря атмосферное давление.
Po - Атмосферное давление - измеренное на уровне метеостанции атмосферное давление.
Tmin - Минимальная температура - минимум температуры воздуха на высоте 2 м над землей.
Tmax - Максимальная температура - максимум температуры воздуха на высоте 2 м над землей.
R - Количество осадков - Количество выпавших осадков за период времени, мм. При наведении курсора мыши на число - период времени, за который выпало указанное количество осадков.
R24 - Количество осадков - Количество выпавших осадков за 24 часа, мм.
S - Снежный покров - Высота снежного покрова, см. При наведении курсора мыши на число - состояние снежного покрова и степень покрытия местности в баллах.